Regional Weather Roundup
Issued by NWS

Home | Current Version | Previous Version | Graphics & Text | Print | Product List | Glossary On
Versions: 1 2 3 4 5 6 7 8 9 10 11 12 13 14 15 16 17 18 19 20 21 22 23 24 25 26 27 28 29 30 31 32 33 34 35 36 37 38 39 40 41 42 43 44 45 46 47 48 49 50
000
ASUS43 KLMK 181710
RWRKY
KENTUCKY REGIONAL WEATHER ROUNDUP
NATIONAL WEATHER SERVICE LOUISVILLE KY
1200 PM EST WED JAN 18 2017

NOTE "FAIR" INDICATES FEW OR NO CLOUDS BELOW 12,000 FEET
WITH NO SIGNIFICANT WEATHER AND/OR OBSTRUCTIONS TO VISIBILITY.

KYZ001>023-026-027-061>063-070>075-181800-
WESTERN AND SOUTH CENTRAL KENTUCKY

CITY           SKY/WX    TMP DP  RH WIND       PRES   REMARKS
PADUCAH        CLOUDY    43  37  79 NE5       30.25F
HENDERSON      CLOUDY    43  34  70 CALM      30.25F
OWENSBORO      CLOUDY    42  35  76 NW5       30.25
HOPKINSVILLE   CLOUDY    45  39  79 CALM      30.24F
BOWLING GREEN  CLOUDY    46  38  73 CALM      30.25F
GLASGOW        CLOUDY    46  38  73 W3        30.24F
$$

KYZ024-025-028>034-038-045-046-053-181800-
NORTH CENTRAL KENTUCKY

CITY           SKY/WX    TMP DP  RH WIND       PRES   REMARKS
LOUISVILLE/SDF CLOUDY    44  35  70 W7        30.24S
LOUISVILLE/LOU CLOUDY    43  35  73 W8        30.24F
FORT KNOX      CLOUDY    42  37  81 W5        30.22F
$$

KYZ035>037-039>044-047>052-055>060-089>105-181800-
NORTHEAST KENTUCKY

CITY           SKY/WX    TMP DP  RH WIND       PRES   REMARKS
LEXINGTON      CLOUDY    42  37  82 W3        30.22F
COVINGTON      CLOUDY    38  35  89 W8        30.20F WCI  32
FRANKFORT      CLOUDY    43  36  76 VRB5      30.21F
$$

KYZ054-064>069-076>088-106>120-181800-
SOUTHEAST KENTUCKY

CITY           SKY/WX    TMP DP  RH WIND       PRES   REMARKS
JACKSON        CLOUDY    43  37  79 W3        30.20F
LONDON         CLOUDY    44  35  70 W6        30.21F
SOMERSET       CLOUDY    43  34  70 CALM      30.24F
MIDDLESBORO    MOSUNNY   49  40  70 W6        30.21F
MONTICELLO     CLOUDY    45  37  73 NW8       30.25F
$$




USA.gov is the U.S. government's official web portal to all federal, state and local government web resources and services.